[[{"header":{"parameterUnit":"m.s-1","parameterCategory":2,"la1":30.2991,"la2":30.254,"lo1":-89.0895,"lo2":-89.0444,"dy":0.0017,"dx":0.0017,"nx":28,"ny":28,"refTime":"2025-05-24T21:00:00:Z","depth":"0","parameterNumber":2,"parameterNumberName":"U-component_of_CURRENTS"},"data":[0,0,0,0,0,0,0,0,0,0,0,0,0,0,0,0,0,0,0,0,0,0,0,0,0,0,0,0,0,0,0,0,0,0,0,0,0,0,0,0,0,0,0,0,0,0,0,0,0,0,0,0,0,0,0,0,0,0,-0.2769,-0.2769,0,-0.2742,-0.2741,-0.274,-0.2749,-0.2751,-0.2752,-0.2753,-0.2665,-0.2662,-0.2658,0,0,0,0,0,0,0,0,0,0,0,0,0,-0.2631,-0.2634,-0.2769,-0.2769,-0.277,-0.2742,-0.2741,-0.274,-0.2749,-0.2751,-0.2752,-0.2754,-0.2666,-0.2662,-0.2658,0,0,0,0,0,0,0,0,0,0,0,0,0,-0.2649,-0.2635,-0.2769,-0.2777,-0.2779,-0.2742,-0.2741,-0.2739,-0.2749,-0.2751,-0.2753,-0.2755,-0.2668,-0.2662,-0.2657,-0.2581,0,0,-0.264,-0.2638,0,0,0,0,0,0,0,0,-0.2648,-0.2653,-0.2776,-0.2777,-0.2778,-0.2759,-0.2661,-0.2687,-0.2748,-0.2751,-0.2753,-0.2756,-0.2695,-0.2687,-0.2666,-0.2577,-0.2573,-0.264,-0.2637,-0.2634,-0.2633,0,0,0,0,0,0,0,-0.2647,-0.2653,-0.2749,-0.2776,-0.2778,-0.2716,-0.2722,-0.2664,-0.2703,-0.2751,-0.2753,-0.2764,-0.2694,-0.2671,-0.2664,-0.2572,-0.264,-0.2635,-0.2632,-0.263,-0.2433,-0.2432,0,0,0,0,0,0,-0.2676,-0.2653,-0.275,-0.2749,-0.2727,-0.2718,-0.2724,-0.2756,-0.2705,-0.2703,-0.2762,-0.2765,-0.268,-0.267,-0.2661,-0.2511,-0.2634,-0.2629,-0.2626,-0.2435,-0.2433,-0.2431,0,0,0,0,0,0,-0.2674,-0.2686,-0.2751,-0.2705,-0.2711,-0.2721,-0.2755,-0.2754,-0.2753,-0.2717,-0.2711,-0.2766,-0.2681,-0.2669,-0.2591,-0.251,-0.2627,-0.2622,-0.2438,-0.2435,-0.2432,-0.2247,0,0,0,0,0,0,-0.267,-0.2686,-0.2705,-0.2709,-0.2715,-0.2718,-0.2754,-0.2753,-0.276,-0.2763,-0.2717,-0.271,-0.2682,-0.2599,-0.2586,-0.2505,-0.2617,-0.244,-0.2436,-0.2433,-0.2255,-0.2238,-0.2223,0,0,0,0,0,-0.2666,-0.269,-0.2707,-0.2718,-0.2747,-0.2718,-0.2712,-0.2719,-0.2758,-0.2731,-0.2699,-0.2713,-0.2569,-0.2592,-0.2577,-0.2492,-0.2442,-0.2437,-0.2433,-0.2262,-0.2241,-0.2223,0,0,0,0,0,0,-0.2644,-0.2694,-0.2712,-0.2754,-0.2732,-0.2723,-0.2715,-0.2726,-0.2681,-0.2696,-0.2668,-0.2654,-0.2559,-0.2566,-0.2593,-0.2435,-0.2515,-0.2508,-0.2391,-0.2371,-0.2355,-0.2401,-0.2613,0,0,0,0,0,-0.265,-0.2678,-0.2696,-0.2718,-0.2721,-0.272,-0.2714,-0.2718,-0.2691,-0.2678,-0.2623,-0.2586,-0.2524,-0.2484,-0.2433,-0.2334,-0.2377,-0.2283,-0.2266,-0.2252,-0.2285,-0.2302,-0.2291,-0.2417,-0.2417,-0.2417,0,0,-0.2646,-0.2678,-0.2693,-0.2713,-0.271,-0.2642,-0.2719,-0.2713,-0.263,-0.267,-0.2532,-0.2522,-0.2491,-0.2369,-0.233,-0.2364,-0.222,-0.2247,-0.2234,-0.2276,-0.2297,-0.2285,-0.2274,-0.2414,-0.2414,-0.2415,0,0,-0.2604,-0.2684,-0.2662,-0.2637,-0.2637,-0.2619,-0.2621,-0.2593,-0.2564,-0.2442,-0.2458,-0.2424,-0.2282,-0.2259,-0.223,-0.211,-0.2141,-0.2079,-0.2012,-0.2025,-0.2015,-0.2008,-0.1962,-0.1952,-0.2062,-0.2062,-0.2061,0,-0.2582,-0.2564,-0.2641,-0.2582,-0.2546,-0.26,-0.2517,-0.2475,-0.2403,-0.2384,-0.2375,-0.2261,-0.2232,-0.2146,-0.2089,-0.2071,-0.2069,-0.2072,-0.2003,-0.1997,-0.1992,-0.1949,-0.1941,-0.2052,-0.2053,-0.2054,-0.2055,0,-0.2488,-0.2457,-0.2443,-0.2379,-0.2354,-0.2301,-0.2271,-0.2226,-0.2203,-0.2171,-0.2096,-0.2064,-0.2026,-0.1982,-0.1976,-0.1923,-0.1924,-0.1981,-0.2048,-0.1968,-0.1927,-0.1921,-0.2039,-0.2042,-0.2045,-0.2047,0,0,-0.242,-0.2382,-0.2359,-0.2303,-0.2245,-0.2217,-0.2107,-0.2038,-0.2012,-0.1931,-0.188,-0.1782,-0.1856,-0.1838,-0.1852,-0.1848,-0.1765,-0.1881,-0.1886,-0.1829,-0.1737,-0.1632,-0.1617,-0.1798,-0.1798,-0.1798,-0.1691,0,-0.2282,-0.2156,-0.2167,-0.2005,-0.1927,-0.1955,-0.1857,-0.1827,-0.18,-0.1757,-0.179,-0.1741,-0.1769,-0.1767,-0.1764,-0.18,-0.1756,-0.1787,-0.1836,-0.1837,-0.1748,-0.161,-0.1502,-0.139,-0.1686,-0.1685,-0.1685,0,-0.2114,-0.2064,-0.1907,-0.1841,-0.1822,-0.174,-0.1687,-0.1614,-0.1614,-0.1611,-0.1627,-0.1667,-0.1663,-0.1706,-0.171,-0.1722,-0.1711,-0.1725,-0.1722,-0.1707,-0.1724,-0.1538,-0.137,-0.1367,-0.1677,-0.1678,-0.1678,0,-0.1968,-0.1858,-0.1743,-0.1702,-0.1641,-0.1603,-0.1581,-0.1571,-0.1546,-0.1552,-0.1559,-0.1584,-0.1601,-0.1621,-0.1642,-0.1671,-0.1641,-0.1696,-0.1575,-0.1566,-0.1533,-0.1521,-0.1378,-0.1675,-0.1676,-0.1676,-0.1676,0,-0.1758,-0.1658,-0.168,-0.1599,-0.1512,-0.152,-0.145,-0.1446,-0.1463,-0.1451,-0.1505,-0.1503,-0.1586,-0.1586,-0.1605,-0.1551,-0.1607,-0.1539,-0.1532,-0.1453,-0.1436,-0.1488,-0.1533,-0.1672,-0.1673,-0.1674,-0.1674,0,-0.1549,-0.1548,-0.1441,-0.1425,-0.142,-0.1367,-0.1374,-0.135,-0.1381,-0.137,-0.1374,-0.1431,-0.1423,-0.1459,-0.1482,-0.1483,-0.1421,-0.1422,-0.1286,-0.1264,-0.1155,-0.1194,-0.1115,-0.1086,-0.127,-0.1266,-0.1264,0,-0.1404,-0.1332,-0.1337,-0.1311,-0.129,-0.1251,-0.1234,-0.1278,-0.127,-0.1319,-0.1307,-0.1311,-0.1264,-0.1232,-0.1233,-0.1184,-0.1258,-0.108,-0.1131,-0.1095,-0.1137,-0.1195,-0.1183,-0.098,-0.0976,-0.0972,-0.0968,0,-0.1159,-0.1205,-0.1164,-0.1138,-0.1116,-0.1097,-0.1088,-0.1082,-0.1147,-0.115,-0.1141,-0.1108,-0.1056,-0.0947,-0.0893,-0.0901,-0.1041,-0.0995,-0.1016,-0.0929,-0.0931,-0.0918,-0.1077,-0.0933,-0.0937,-0.0939,-0.0941,-0.0943,-0.1017,-0.0978,-0.0984,-0.0945,-0.095,-0.0935,-0.0875,-0.0915,-0.0899,-0.0868,-0.0913,-0.0761,-0.0655,-0.0547,-0.0617,-0.0633,-0.0742,-0.065,-0.0702,-0.0765,-0.0732,-0.077,-0.0596,-0.0598,-0.0599,-0.06,-0.0601,0,-0.0809,-0.0812,-0.0786,-0.0756,-0.0728,-0.0777,-0.0763,-0.0705,-0.0661,-0.0616,-0.0539,-0.0241,-0.0167,-0.02,-0.0257,-0.033,-0.0414,-0.0398,-0.048,-0.0487,-0.0548,-0.053,-0.0263,-0.0263,-0.0263,-0.0263,-0.0263,-0.0263,-0.0708,-0.0628,-0.0639,-0.0539,-0.0533,-0.0438,-0.0408,-0.0362,-0.0293,-0.0102,0.0095,0.0226,0.0251,0.0079,-0.0131,-0.0212,-0.0301,-0.0292,-0.038,-0.0451,-0.0481,-0.0509,-0.05,-0.0231,-0.0231,-0.0276,-0.0276,-0.0277]},{"header":{"parameterUnit":"m.s-1","parameterCategory":2,"la1":30.2991,"la2":30.254,"lo1":-89.0895,"lo2":-89.0444,"dy":0.0017,"dx":0.0017,"nx":28,"ny":28,"refTime":"2025-05-24T21:00:00:Z","depth":"0","parameterNumber":3,"parameterNumberName":"V-component_of_CURRENTS"},"data":[0,0,0,0,0,0,0,0,0,0,0,0,0,0,0,0,0,0,0,0,0,0,0,0,0,0,0,0,0,0,0,0,0,0,0,0,0,0,0,0,0,0,0,0,0,0,0,0,0,0,0,0,0,0,0,0,0,0,-0.06,-0.0598,0,-0.0279,-0.0273,-0.0268,-0.0089,-0.0091,-0.0092,-0.0093,0.0287,0.0298,0.0309,0,0,0,0,0,0,0,0,0,0,0,0,0,-0.0659,-0.066,-0.06,-0.0598,-0.0596,-0.028,-0.0273,-0.0267,-0.0089,-0.0091,-0.0092,-0.0094,0.0283,0.0296,0.031,0,0,0,0,0,0,0,0,0,0,0,0,0,-0.0498,-0.066,-0.0601,-0.0483,-0.0471,-0.0281,-0.0273,-0.0265,-0.0089,-0.0091,-0.0093,-0.0094,0.0278,0.0295,0.0312,0.0453,0,0,0.0363,0.0371,0,0,0,0,0,0,0,0,-0.0508,-0.0494,-0.0503,-0.0491,-0.0477,-0.0243,-0.0155,-0.0029,-0.0088,-0.0213,-0.0093,-0.0095,0.0104,0.0135,0.0226,0.0471,0.0488,0.0365,0.0375,0.0382,0.0387,0,0,0,0,0,0,0,-0.052,-0.0504,-0.0453,-0.0501,-0.0485,-0.031,-0.0291,-0.0127,-0.0032,-0.0203,-0.0194,-0.0188,0.0113,0.021,0.0236,0.0493,0.0364,0.0379,0.039,0.0396,0.0819,0.082,0,0,0,0,0,0,-0.0618,-0.0517,-0.0464,-0.0446,-0.0519,-0.0311,-0.0288,-0.03,-0.0035,-0.0002,-0.0187,-0.0182,0.0182,0.0216,0.025,0.0401,0.0382,0.0398,0.0408,0.0817,0.0819,0.082,0,0,0,0,0,0,-0.062,-0.0616,-0.0477,-0.0487,-0.046,-0.0313,-0.0325,-0.0294,-0.0204,-0.0027,0.001,-0.0135,0.0182,0.0226,0.0417,0.0417,0.0406,0.0421,0.0816,0.0818,0.0819,0.0722,0,0,0,0,0,0,-0.0623,-0.0619,-0.0638,-0.0496,-0.0465,-0.036,-0.0324,-0.0287,-0.0207,-0.0196,0.0031,0.0065,0.0184,0.0391,0.0434,0.044,0.0434,0.0815,0.0817,0.0819,0.0724,0.072,0.0717,0,0,0,0,0,-0.0626,-0.0646,-0.0641,-0.0634,-0.0505,-0.0361,-0.0323,-0.021,-0.0204,-0.0139,0.001,0.0057,0.0431,0.0409,0.0458,0.0468,0.0814,0.0816,0.0819,0.0726,0.0721,0.0717,0,0,0,0,0,0,-0.0662,-0.0627,-0.0619,-0.0625,-0.051,-0.0338,-0.0282,-0.0217,-0.0042,-0.0038,0.0121,0.017,0.0327,0.0419,0.0389,0.059,0.0611,0.0624,0.0523,0.0521,0.0517,0.0463,0.0448,0,0,0,0,0,-0.0695,-0.0709,-0.0617,-0.0613,-0.0574,-0.0432,-0.0361,-0.0284,-0.0134,-0.006,0.009,0.0237,0.0382,0.0464,0.0618,0.0759,0.0773,0.078,0.0777,0.0773,0.0761,0.0788,0.0784,0.0828,0.0828,0.0828,0,0,-0.0708,-0.0693,-0.0698,-0.0622,-0.0529,-0.0427,-0.0386,-0.0284,-0.0194,-0.0045,0.0132,0.0252,0.042,0.0574,0.0645,0.0647,0.0766,0.0776,0.0772,0.0762,0.079,0.0785,0.0781,0.083,0.0829,0.0829,0,0,-0.0694,-0.0728,-0.0704,-0.0621,-0.0518,-0.043,-0.0417,-0.0249,-0.0176,0.0005,0.0106,0.0226,0.0477,0.0579,0.0663,0.0734,0.0753,0.076,0.0702,0.0728,0.0723,0.072,0.0704,0.07,0.0747,0.0747,0.0747,0,-0.0701,-0.0675,-0.0658,-0.0584,-0.0529,-0.0445,-0.0359,-0.0253,-0.004,-0.0001,0.0042,0.0336,0.0476,0.0616,0.0638,0.0723,0.072,0.0702,0.0718,0.0715,0.0713,0.0698,0.0694,0.0743,0.0743,0.0744,0.0744,0,-0.0636,-0.0605,-0.0578,-0.0489,-0.0419,-0.0334,-0.0232,-0.0156,-0.0091,0.0002,0.0141,0.0329,0.0475,0.0529,0.0624,0.067,0.0666,0.0712,0.0713,0.0701,0.0688,0.0685,0.0736,0.0738,0.0739,0.074,0,0,-0.0661,-0.0557,-0.0542,-0.0504,-0.0374,-0.0316,-0.0218,-0.0114,-0.0098,0.0075,0.0123,0.035,0.0377,0.0471,0.057,0.06,0.0587,0.0633,0.0637,0.0588,0.0597,0.0632,0.0633,0.062,0.062,0.062,0.0582,0,-0.0596,-0.0488,-0.0447,-0.0338,-0.0275,-0.0222,-0.0155,-0.0074,-0.0006,0.0062,0.0174,0.0284,0.0374,0.0419,0.0465,0.0584,0.0581,0.059,0.0642,0.0643,0.0652,0.0633,0.0692,0.0668,0.058,0.0579,0.0579,0,-0.0519,-0.0473,-0.0368,-0.0318,-0.0295,-0.023,-0.0201,-0.0122,-0.0046,-0.0005,0.0075,0.0164,0.0271,0.0326,0.0456,0.0451,0.0499,0.0564,0.0564,0.063,0.0676,0.0676,0.0667,0.0736,0.0576,0.0576,0.0577,0,-0.0538,-0.0424,-0.0368,-0.0329,-0.0244,-0.0235,-0.0204,-0.0148,-0.0133,-0.0061,-0.0058,0.0076,0.0149,0.0236,0.0396,0.0407,0.0505,0.0541,0.06,0.0601,0.0682,0.0691,0.0726,0.057,0.057,0.057,0.0571,0,-0.0481,-0.0435,-0.0386,-0.0348,-0.0345,-0.0282,-0.0287,-0.0253,-0.022,-0.0218,-0.0109,-0.0057,0.0127,0.0225,0.0338,0.0472,0.0456,0.0575,0.0599,0.0649,0.0656,0.0747,0.0763,0.0569,0.0569,0.057,0.057,0,-0.0468,-0.0419,-0.0376,-0.0337,-0.0338,-0.0344,-0.0348,-0.0364,-0.033,-0.0326,-0.0311,-0.016,-0.0007,0.0149,0.0319,0.0407,0.0577,0.0563,0.0593,0.0623,0.0744,0.0752,0.0777,0.0847,0.0601,0.0602,0.0602,0,-0.043,-0.0403,-0.04,-0.0416,-0.0395,-0.0407,-0.043,-0.0412,-0.0429,-0.0369,-0.0369,-0.0222,-0.0038,0.0217,0.038,0.0542,0.061,0.0646,0.0696,0.0744,0.0771,0.0764,0.0821,0.0745,0.0747,0.0748,0.075,0,-0.0381,-0.0401,-0.0391,-0.0437,-0.0467,-0.051,-0.0534,-0.0571,-0.0554,-0.0519,-0.0382,-0.0211,0.0061,0.0368,0.0548,0.0629,0.071,0.0678,0.0739,0.0888,0.0873,0.0955,0.0741,0.0762,0.0761,0.076,0.0759,0.0759,-0.0365,-0.038,-0.04,-0.0447,-0.0508,-0.0585,-0.0614,-0.0645,-0.0642,-0.0539,-0.0333,0.0028,0.043,0.0755,0.0752,0.084,0.0808,0.092,0.0919,0.09,0.0997,0.0787,0.0842,0.0842,0.0841,0.084,0.084,0,-0.0311,-0.0348,-0.0405,-0.0469,-0.0546,-0.0577,-0.0659,-0.0661,-0.0646,-0.044,-0.0187,0.0542,0.0818,0.1022,0.1139,0.1133,0.1107,0.1129,0.1147,0.1192,0.1024,0.1066,0.1162,0.1162,0.1161,0.1161,0.1161,0.1161,-0.028,-0.0312,-0.0358,-0.0466,-0.0529,-0.0591,-0.0631,-0.0628,-0.0497,-0.0073,0.041,0.0845,0.133,0.1358,0.1366,0.1333,0.1395,0.133,0.1362,0.126,0.124,0.1222,0.1268,0.1404,0.1404,0.1571,0.1572,0.1573]}],[{"header":{"parameterUnit":"m.s-1","parameterCategory":2,"la1":30.2991,"la2":30.254,"lo1":-89.0895,"lo2":-89.0444,"dy":0.0017,"dx":0.0017,"nx":28,"ny":28,"refTime":"2025-05-24T21:00:00:Z","depth":"2","parameterNumber":2,"parameterNumberName":"U-component_of_CURRENTS"},"data":[0,0,0,0,0,0,0,0,0,0,0,0,0,0,0,0,0,0,0,0,0,0,0,0,0,0,0,0,0,0,0,0,0,0,0,0,0,0,0,0,0,0,0,0,0,0,0,0,0,0,0,0,0,0,0,0,0,0,-0.1909,-0.1911,0,-0.1983,-0.1984,-0.1984,-0.2011,-0.2011,-0.2012,-0.2012,-0.2104,-0.2106,-0.2108,0,0,0,0,0,0,0,0,0,0,0,0,0,-0.1829,-0.1829,-0.1909,-0.1911,-0.1912,-0.1983,-0.1984,-0.1984,-0.2011,-0.2011,-0.2012,-0.2012,-0.2103,-0.2105,-0.2108,0,0,0,0,0,0,0,0,0,0,0,0,0,-0.1872,-0.1829,-0.1909,-0.194,-0.1944,-0.1983,-0.1984,-0.1984,-0.2011,-0.2011,-0.2012,-0.2013,-0.2102,-0.2105,-0.2108,-0.2113,0,0,-0.2117,-0.2119,0,0,0,0,0,0,0,0,-0.1869,-0.1874,-0.1934,-0.1938,-0.1943,-0.1995,-0.1989,-0.2031,-0.2011,-0.1977,-0.2012,-0.2013,-0.2074,-0.2079,-0.208,-0.2117,-0.2121,-0.2118,-0.2119,-0.2121,-0.2122,0,0,0,0,0,0,0,-0.1866,-0.1871,-0.1931,-0.1936,-0.1941,-0.1964,-0.197,-0.1997,-0.2015,-0.198,-0.1984,-0.2005,-0.2075,-0.2077,-0.2083,-0.2122,-0.2117,-0.212,-0.2122,-0.2123,-0.2204,-0.2205,0,0,0,0,0,0,-0.187,-0.1868,-0.1929,-0.1934,-0.1916,-0.1965,-0.1971,-0.1971,-0.2014,-0.2024,-0.2004,-0.2006,-0.2072,-0.2079,-0.2086,-0.2113,-0.2121,-0.2123,-0.2125,-0.2204,-0.2204,-0.2205,0,0,0,0,0,0,-0.1867,-0.1874,-0.1926,-0.191,-0.1919,-0.1967,-0.1966,-0.1973,-0.1993,-0.2034,-0.2042,-0.2021,-0.2072,-0.2082,-0.212,-0.2116,-0.2125,-0.2128,-0.2204,-0.2204,-0.2205,-0.2156,0,0,0,0,0,0,-0.1864,-0.1872,-0.1839,-0.1909,-0.1921,-0.1946,-0.1967,-0.1974,-0.2007,-0.201,-0.2051,-0.2059,-0.2074,-0.2116,-0.2123,-0.2121,-0.213,-0.2203,-0.2204,-0.2205,-0.2157,-0.2155,-0.2153,0,0,0,0,0,-0.1861,-0.186,-0.1837,-0.1843,-0.1885,-0.1947,-0.1953,-0.1985,-0.2007,-0.2006,-0.2042,-0.2058,-0.2125,-0.2118,-0.2127,-0.2125,-0.2203,-0.2204,-0.2204,-0.2158,-0.2155,-0.2153,0,0,0,0,0,0,-0.1815,-0.1865,-0.1841,-0.1851,-0.1881,-0.1954,-0.1965,-0.1993,-0.2019,-0.2021,-0.2065,-0.2075,-0.2108,-0.2128,-0.2119,-0.2153,-0.2166,-0.2169,-0.2128,-0.2125,-0.2123,-0.2105,-0.2132,0,0,0,0,0,-0.1783,-0.1796,-0.1834,-0.1841,-0.1854,-0.1902,-0.1924,-0.1946,-0.1997,-0.201,-0.2051,-0.2086,-0.2114,-0.2129,-0.2157,-0.2176,-0.2153,-0.2182,-0.2179,-0.2177,-0.217,-0.2122,-0.2113,-0.2207,-0.2207,-0.2207,0,0,-0.1757,-0.1801,-0.1793,-0.1831,-0.1858,-0.1863,-0.1917,-0.1958,-0.1962,-0.2016,-0.2043,-0.2085,-0.2121,-0.2138,-0.2154,-0.2156,-0.2138,-0.2178,-0.2176,-0.2169,-0.2121,-0.2111,-0.2103,-0.2208,-0.2208,-0.2208,0,0,-0.1755,-0.1759,-0.1756,-0.1782,-0.1826,-0.1849,-0.1864,-0.1928,-0.1949,-0.1986,-0.202,-0.2058,-0.2119,-0.2126,-0.2141,-0.2146,-0.2133,-0.2166,-0.2132,-0.2086,-0.2076,-0.2068,-0.2015,-0.2002,-0.2158,-0.2157,-0.2157,0,-0.1715,-0.1714,-0.1765,-0.1781,-0.1796,-0.1844,-0.1835,-0.1861,-0.193,-0.1945,-0.199,-0.2065,-0.2106,-0.2104,-0.2116,-0.2137,-0.2108,-0.2136,-0.2078,-0.207,-0.2062,-0.201,-0.1996,-0.2155,-0.2155,-0.2156,-0.2156,0,-0.1702,-0.169,-0.1715,-0.1723,-0.1743,-0.1761,-0.1798,-0.1819,-0.1868,-0.1896,-0.1939,-0.1998,-0.2039,-0.2063,-0.2101,-0.207,-0.2065,-0.2081,-0.2075,-0.2049,-0.1997,-0.1983,-0.2152,-0.2153,-0.2153,-0.2154,0,0,-0.1645,-0.1683,-0.1686,-0.1674,-0.1712,-0.174,-0.1742,-0.1756,-0.1766,-0.1828,-0.1843,-0.1913,-0.1956,-0.1977,-0.202,-0.1998,-0.1933,-0.2022,-0.2021,-0.1952,-0.1816,-0.174,-0.1718,-0.1933,-0.1931,-0.1929,-0.1795,0,-0.1602,-0.1612,-0.1642,-0.1625,-0.1617,-0.1661,-0.1662,-0.1686,-0.1734,-0.176,-0.181,-0.1851,-0.1915,-0.1949,-0.1931,-0.1952,-0.1899,-0.1968,-0.1868,-0.1865,-0.1785,-0.17,-0.1593,-0.1458,-0.1783,-0.178,-0.1779,0,-0.1561,-0.1575,-0.155,-0.1572,-0.1573,-0.1571,-0.1594,-0.1605,-0.1637,-0.1678,-0.1712,-0.1767,-0.1775,-0.1833,-0.1794,-0.1835,-0.1814,-0.1815,-0.1809,-0.1745,-0.1763,-0.1542,-0.1422,-0.1757,-0.1758,-0.176,-0.1762,0,-0.1499,-0.1517,-0.1498,-0.1504,-0.1521,-0.1527,-0.1544,-0.1578,-0.1591,-0.1627,-0.165,-0.1662,-0.1684,-0.1664,-0.1698,-0.1738,-0.1632,-0.1678,-0.1568,-0.1563,-0.1454,-0.1442,-0.1594,-0.1594,-0.1595,-0.1595,-0.1595,0,-0.1449,-0.143,-0.1474,-0.1456,-0.145,-0.1486,-0.1482,-0.1514,-0.1535,-0.1534,-0.1604,-0.1604,-0.1645,-0.1618,-0.1632,-0.1548,-0.1563,-0.1528,-0.1508,-0.1435,-0.1424,-0.1686,-0.1698,-0.159,-0.1591,-0.1592,-0.1593,0,-0.1372,-0.1392,-0.1369,-0.1394,-0.1415,-0.1412,-0.1452,-0.1442,-0.1485,-0.1485,-0.1496,-0.1532,-0.1492,-0.1502,-0.1459,-0.1447,-0.1394,-0.135,-0.1261,-0.1232,-0.1371,-0.1383,-0.1202,-0.1197,-0.1194,-0.1191,-0.1188,0,-0.1332,-0.1308,-0.1334,-0.133,-0.134,-0.1356,-0.1356,-0.1407,-0.1405,-0.1439,-0.1422,-0.1401,-0.1369,-0.1267,-0.1211,-0.1135,-0.1247,-0.1014,-0.1068,-0.1324,-0.1324,-0.1341,-0.1358,-0.0904,-0.0899,-0.0896,-0.0892,0,-0.1242,-0.125,-0.1244,-0.124,-0.1244,-0.1248,-0.1268,-0.1263,-0.1306,-0.1308,-0.1288,-0.1268,-0.1165,-0.1033,-0.0937,-0.0902,-0.1026,-0.0933,-0.1181,-0.1031,-0.1035,-0.1039,-0.1065,-0.0859,-0.0862,-0.0865,-0.0867,-0.0868,-0.1191,-0.1163,-0.1159,-0.1151,-0.115,-0.113,-0.1104,-0.112,-0.1102,-0.1086,-0.1125,-0.105,-0.1015,-0.0795,-0.0721,-0.0654,-0.0744,-0.0747,-0.0762,-0.078,-0.0781,-0.0779,-0.0554,-0.0556,-0.0557,-0.0558,-0.0559,0,-0.1119,-0.1091,-0.1071,-0.1046,-0.1001,-0.1038,-0.1025,-0.0979,-0.0926,-0.0921,-0.0891,-0.0767,-0.0649,-0.0613,-0.0438,-0.0404,-0.0438,-0.0406,-0.0465,-0.0496,-0.0524,-0.0517,-0.0217,-0.0217,-0.0216,-0.0216,0,0,-0.1074,-0.1018,-0.0994,-0.0903,-0.0886,-0.0806,-0.0777,-0.0733,-0.0707,-0.0638,-0.059,-0.0628,-0.0604,-0.0436,-0.0371,-0.0266,-0.0391,-0.0244,-0.0512,-0.0612,-0.064,-0.0702,-0.0721,0,0,0,0,0]},{"header":{"parameterUnit":"m.s-1","parameterCategory":2,"la1":30.2991,"la2":30.254,"lo1":-89.0895,"lo2":-89.0444,"dy":0.0017,"dx":0.0017,"nx":28,"ny":28,"refTime":"2025-05-24T21:00:00:Z","depth":"2","parameterNumber":3,"parameterNumberName":"V-component_of_CURRENTS"},"data":[0,0,0,0,0,0,0,0,0,0,0,0,0,0,0,0,0,0,0,0,0,0,0,0,0,0,0,0,0,0,0,0,0,0,0,0,0,0,0,0,0,0,0,0,0,0,0,0,0,0,0,0,0,0,0,0,0,0,-0.049,-0.0489,0,-0.041,-0.0409,-0.0408,-0.0317,-0.0316,-0.0314,-0.0313,-0.0011,-0.0004,0.0003,0,0,0,0,0,0,0,0,0,0,0,0,0,-0.051,-0.051,-0.049,-0.0489,-0.0488,-0.041,-0.0409,-0.0407,-0.0317,-0.0316,-0.0314,-0.0313,-0.0013,-0.0005,0.0003,0,0,0,0,0,0,0,0,0,0,0,0,0,-0.0472,-0.051,-0.049,-0.0435,-0.0429,-0.041,-0.0409,-0.0407,-0.0317,-0.0316,-0.0314,-0.0312,-0.0016,-0.0006,0.0005,0.0032,0,0,0.0036,0.0041,0,0,0,0,0,0,0,0,-0.0474,-0.0471,-0.0444,-0.0439,-0.0432,-0.0373,-0.0305,-0.025,-0.0318,-0.0359,-0.0313,-0.0311,-0.0113,-0.0095,-0.0085,0.0046,0.0059,0.0037,0.0044,0.0048,0.0051,0,0,0,0,0,0,0,-0.0477,-0.0474,-0.0457,-0.0443,-0.0436,-0.0395,-0.0388,-0.0295,-0.0242,-0.0355,-0.0348,-0.0342,-0.0108,-0.0096,-0.0077,0.0063,0.0037,0.0046,0.0053,0.0057,0.0313,0.0313,0,0,0,0,0,0,-0.0495,-0.0477,-0.046,-0.0455,-0.045,-0.0396,-0.0388,-0.0393,-0.0248,-0.0226,-0.0344,-0.0338,-0.0114,-0.0089,-0.0065,0.0025,0.0048,0.0058,0.0064,0.0312,0.0313,0.0313,0,0,0,0,0,0,-0.0496,-0.0494,-0.0463,-0.0464,-0.0457,-0.0399,-0.0404,-0.0392,-0.0372,-0.0242,-0.0215,-0.0335,-0.0112,-0.008,0.0032,0.0036,0.0062,0.0072,0.0311,0.0312,0.0313,0.0176,0,0,0,0,0,0,-0.0497,-0.0496,-0.05,-0.0466,-0.0458,-0.0452,-0.0405,-0.0392,-0.0372,-0.0364,-0.0226,-0.0197,-0.0108,0.0015,0.0042,0.0051,0.008,0.0311,0.0312,0.0313,0.018,0.0172,0.0165,0,0,0,0,0,-0.0498,-0.0513,-0.0502,-0.0499,-0.0469,-0.0452,-0.0445,-0.0395,-0.0374,-0.037,-0.0268,-0.0201,0.0041,0.0024,0.0055,0.0067,0.031,0.0311,0.0313,0.0183,0.0173,0.0165,0,0,0,0,0,0,-0.0521,-0.0504,-0.0491,-0.0499,-0.0479,-0.0437,-0.043,-0.0405,-0.0331,-0.0312,-0.0191,-0.0154,-0.006,0.0026,0.0003,0.0146,0.0186,0.0193,0.0077,0.0069,0.0062,0.0063,0.0088,0,0,0,0,0,-0.0534,-0.0543,-0.0516,-0.0525,-0.0516,-0.0478,-0.0465,-0.0438,-0.0373,-0.0341,-0.0247,-0.0135,-0.0036,0.0033,0.0127,0.0211,0.0263,0.024,0.0233,0.0226,0.0249,0.031,0.031,0.0318,0.0318,0.0318,0,0,-0.0542,-0.0539,-0.054,-0.0531,-0.051,-0.0498,-0.0465,-0.0454,-0.043,-0.0314,-0.0245,-0.0161,-0.0022,0.0065,0.0116,0.0144,0.0244,0.0228,0.022,0.0249,0.0312,0.0311,0.031,0.0318,0.0318,0.0318,0,0,-0.0571,-0.0566,-0.0579,-0.0567,-0.0549,-0.0521,-0.0523,-0.0484,-0.045,-0.0382,-0.0296,-0.0208,-0.0058,0.0035,0.0106,0.0122,0.0192,0.0147,0.0129,0.0186,0.0185,0.0185,0.0204,0.0207,0.0157,0.0156,0.0156,0,-0.0582,-0.0593,-0.0579,-0.0585,-0.0571,-0.0535,-0.0532,-0.0498,-0.0427,-0.039,-0.0365,-0.0168,-0.0066,0.0054,0.0061,0.0106,0.0136,0.014,0.0173,0.0175,0.0177,0.0197,0.0202,0.015,0.0151,0.0151,0.0152,0,-0.0614,-0.0616,-0.0624,-0.0615,-0.06,-0.0596,-0.055,-0.0523,-0.048,-0.0435,-0.0334,-0.0214,-0.0088,-0.0057,0.0019,0.0091,0.0101,0.0136,0.0181,0.0167,0.0189,0.0197,0.0141,0.0143,0.0145,0.0146,0,0,-0.0648,-0.0646,-0.0647,-0.064,-0.0614,-0.0603,-0.0568,-0.0516,-0.0483,-0.0413,-0.0355,-0.0208,-0.0162,-0.0076,0.0004,0.0065,0.0086,0.0107,0.0113,0.0102,0.018,0.0183,0.0192,0.0116,0.0118,0.0119,0.0169,0,-0.0671,-0.0691,-0.0677,-0.067,-0.0665,-0.0621,-0.0588,-0.0537,-0.048,-0.0418,-0.0309,-0.022,-0.0164,-0.011,-0.0046,0.0069,0.0109,0.0068,0.0219,0.0224,0.0209,0.0203,0.0182,0.0226,0.0177,0.0178,0.0179,0,-0.0699,-0.0704,-0.0713,-0.0686,-0.0679,-0.0667,-0.0606,-0.0571,-0.0479,-0.0432,-0.0343,-0.0265,-0.0147,-0.0114,0.0051,0.0018,0.0092,0.0162,0.0166,0.0235,0.0244,0.0247,0.0243,0.0193,0.0192,0.0191,0.019,0,-0.0722,-0.0723,-0.073,-0.0724,-0.069,-0.0676,-0.0648,-0.0575,-0.0534,-0.0443,-0.04,-0.0275,-0.0192,-0.0084,0.0063,0.0057,0.0224,0.0233,0.0295,0.0294,0.0347,0.0348,0.0332,0.0332,0.0332,0.0332,0.0332,0,-0.0744,-0.0743,-0.0745,-0.0744,-0.074,-0.0704,-0.0673,-0.0631,-0.0556,-0.0499,-0.0411,-0.0336,-0.0177,-0.0062,0.0048,0.0198,0.0211,0.03,0.032,0.0294,0.029,0.0336,0.0336,0.0334,0.0334,0.0333,0.0333,0,-0.0759,-0.0762,-0.0767,-0.0753,-0.0753,-0.0747,-0.0704,-0.0671,-0.0605,-0.053,-0.05,-0.0367,-0.0216,-0.0075,0.0113,0.0188,0.0323,0.0367,0.0305,0.0318,0.0348,0.034,0.0431,0.0432,0.0433,0.0433,0.0434,0,-0.0766,-0.0774,-0.0788,-0.0795,-0.0791,-0.0778,-0.0761,-0.0703,-0.0662,-0.0536,-0.0497,-0.0351,-0.0229,0.0014,0.0176,0.0341,0.0355,0.04,0.0401,0.0354,0.0364,0.0356,0.0347,0.0394,0.0395,0.0395,0.0395,0,-0.0773,-0.0785,-0.0795,-0.0817,-0.0819,-0.0807,-0.0779,-0.0757,-0.0665,-0.0593,-0.0473,-0.0374,-0.0149,0.0038,0.0236,0.0331,0.037,0.0407,0.0405,0.037,0.0323,0.0332,0.0325,0.0396,0.0396,0.0396,0.0395,0.0395,-0.0784,-0.0798,-0.0819,-0.0834,-0.0837,-0.0822,-0.0801,-0.0747,-0.0677,-0.0533,-0.0468,-0.0287,-0.015,0.0157,0.0276,0.0399,0.0409,0.0436,0.0434,0.0433,0.0418,0.0375,0.0451,0.0452,0.0452,0.0452,0.0452,0,-0.0793,-0.0809,-0.0827,-0.0843,-0.084,-0.0837,-0.0796,-0.0744,-0.0652,-0.0495,-0.0373,-0.0199,-0.0013,0.0151,0.0344,0.0432,0.0421,0.044,0.0409,0.0408,0.0407,0.039,0.0417,0.0417,0.0417,0.0417,0,0,-0.0799,-0.0821,-0.0827,-0.0836,-0.084,-0.0814,-0.0786,-0.0699,-0.0578,-0.0399,-0.0247,-0.0124,0.0043,0.0157,0.0258,0.0359,0.0362,0.0363,0.0385,0.0336,0.0334,0.04,0.0371,0,0,0,0,0]}],[{"header":{"parameterUnit":"m.s-1","parameterCategory":2,"la1":30.2991,"la2":30.254,"lo1":-89.0895,"lo2":-89.0444,"dy":0.0017,"dx":0.0017,"nx":28,"ny":28,"refTime":"2025-05-24T21:00:00:Z","depth":"4","parameterNumber":2,"parameterNumberName":"U-component_of_CURRENTS"},"data":[0,0,0,0,0,0,0,0,0,0,0,0,0,0,0,0,0,0,0,0,0,0,0,0,0,0,0,0,0,0,0,0,0,0,0,0,0,0,0,0,0,0,0,0,0,0,0,0,0,0,0,0,0,0,0,0,0,0,-0.099,-0.0991,0,-0.1078,-0.108,-0.1081,-0.1129,-0.1129,-0.1129,-0.1129,-0.1138,-0.1138,-0.1138,0,0,0,0,0,0,0,0,0,0,0,0,0,-0.091,-0.0911,-0.099,-0.0991,-0.0992,-0.1078,-0.108,-0.1081,-0.1129,-0.1129,-0.1129,-0.1129,-0.1138,-0.1138,-0.1138,0,0,0,0,0,0,0,0,0,0,0,0,0,-0.0968,-0.0911,-0.099,-0.1025,-0.1028,-0.1078,-0.108,-0.1081,-0.1129,-0.1129,-0.1129,-0.1129,-0.1138,-0.1138,-0.1138,-0.1143,0,0,-0.114,-0.114,0,0,0,0,0,0,0,0,-0.0964,-0.0971,-0.1018,-0.1022,-0.1027,-0.1091,-0.1055,-0.1097,-0.1129,-0.1093,-0.1129,-0.1129,-0.1113,-0.1116,-0.1137,-0.1143,-0.1144,-0.114,-0.114,-0.114,-0.114,0,0,0,0,0,0,0,-0.096,-0.0968,-0.1027,-0.1019,-0.1024,-0.1052,-0.106,-0.1064,-0.1103,-0.1096,-0.1099,-0.1106,-0.1115,-0.1136,-0.1137,-0.1144,-0.114,-0.114,-0.114,-0.1141,-0.1174,-0.1174,0,0,0,0,0,0,-0.0943,-0.0964,-0.1024,-0.1029,-0.0992,-0.1053,-0.1062,-0.1072,-0.1104,-0.111,-0.1106,-0.1108,-0.1136,-0.1136,-0.1137,-0.1163,-0.114,-0.1141,-0.1141,-0.1173,-0.1174,-0.1175,0,0,0,0,0,0,-0.0941,-0.0948,-0.102,-0.0997,-0.1008,-0.1054,-0.1065,-0.1074,-0.1106,-0.1113,-0.1116,-0.113,-0.1136,-0.1137,-0.1165,-0.1163,-0.1141,-0.1141,-0.1173,-0.1174,-0.1174,-0.1203,0,0,0,0,0,0,-0.0939,-0.0947,-0.0954,-0.0996,-0.1008,-0.1046,-0.1065,-0.1075,-0.1109,-0.1112,-0.1134,-0.1135,-0.1136,-0.1165,-0.1166,-0.1163,-0.1142,-0.1172,-0.1173,-0.1174,-0.1201,-0.1204,-0.1207,0,0,0,0,0,-0.0935,-0.0949,-0.0954,-0.0962,-0.1015,-0.1045,-0.1055,-0.1089,-0.111,-0.112,-0.1153,-0.1135,-0.1172,-0.1167,-0.1167,-0.1165,-0.1171,-0.1173,-0.1174,-0.1199,-0.1204,-0.1207,0,0,0,0,0,0,-0.093,-0.0957,-0.0963,-0.0987,-0.1008,-0.1053,-0.1074,-0.1096,-0.1134,-0.1148,-0.1155,-0.1158,-0.1177,-0.1172,-0.1166,-0.1178,-0.1163,-0.1165,-0.1182,-0.1186,-0.1189,-0.1177,-0.1142,0,0,0,0,0,-0.0927,-0.0941,-0.0966,-0.0987,-0.0998,-0.1037,-0.1058,-0.1084,-0.1118,-0.1137,-0.1154,-0.1171,-0.1182,-0.1187,-0.1195,-0.1208,-0.1192,-0.1203,-0.1207,-0.1209,-0.12,-0.1185,-0.1186,-0.1179,-0.1179,-0.1179,0,0,-0.093,-0.0949,-0.0957,-0.0986,-0.1012,-0.1037,-0.1051,-0.109,-0.1115,-0.1129,-0.1175,-0.1186,-0.119,-0.1208,-0.1214,-0.1205,-0.1206,-0.1211,-0.1214,-0.1202,-0.1187,-0.1187,-0.1188,-0.118,-0.118,-0.118,0,0,-0.094,-0.096,-0.0969,-0.099,-0.1025,-0.1051,-0.1061,-0.1107,-0.1129,-0.1172,-0.1185,-0.1198,-0.1227,-0.1223,-0.1225,-0.1248,-0.1226,-0.1251,-0.1255,-0.1242,-0.1241,-0.1241,-0.1233,-0.1232,-0.125,-0.125,-0.125,0,-0.0942,-0.096,-0.0978,-0.0998,-0.102,-0.1056,-0.1077,-0.1107,-0.116,-0.1172,-0.1187,-0.1228,-0.1228,-0.1235,-0.1247,-0.1252,-0.1249,-0.1241,-0.1245,-0.1244,-0.1243,-0.1235,-0.1233,-0.1252,-0.1251,-0.1251,-0.1251,0,-0.0955,-0.0976,-0.099,-0.1021,-0.1046,-0.1076,-0.111,-0.1139,-0.1175,-0.1199,-0.1224,-0.1239,-0.1255,-0.1255,-0.1263,-0.1256,-0.1258,-0.1252,-0.1232,-0.1245,-0.1236,-0.1234,-0.1254,-0.1253,-0.1253,-0.1252,0,0,-0.0942,-0.0985,-0.0993,-0.1006,-0.1063,-0.1084,-0.1124,-0.1156,-0.118,-0.122,-0.124,-0.1257,-0.1265,-0.1267,-0.1269,-0.1257,-0.1254,-0.1258,-0.1257,-0.1246,-0.1235,-0.1133,-0.1121,-0.1256,-0.1255,-0.1255,-0.1234,0,-0.0945,-0.0975,-0.1003,-0.1042,-0.1058,-0.1102,-0.1134,-0.1173,-0.1206,-0.1236,-0.1243,-0.1267,-0.127,-0.1281,-0.1272,-0.1262,-0.1248,-0.126,-0.1226,-0.1225,-0.1129,-0.1114,-0.1253,-0.1232,-0.1232,-0.1231,-0.1231,0,-0.0942,-0.0965,-0.0994,-0.104,-0.1052,-0.1086,-0.1136,-0.1171,-0.1214,-0.124,-0.1263,-0.1279,-0.128,-0.1277,-0.1257,-0.1272,-0.1252,-0.1238,-0.1237,-0.1124,-0.1117,-0.1214,-0.1227,-0.1227,-0.1227,-0.1228,-0.1228,0,-0.0908,-0.0958,-0.0978,-0.0998,-0.1058,-0.108,-0.1117,-0.1169,-0.1195,-0.124,-0.1263,-0.1276,-0.1284,-0.1267,-0.1243,-0.1258,-0.1209,-0.1224,-0.1111,-0.1105,-0.1192,-0.1193,-0.119,-0.119,-0.119,-0.119,-0.119,0,-0.0887,-0.0908,-0.0965,-0.0978,-0.1006,-0.1062,-0.1099,-0.1135,-0.1191,-0.1213,-0.1259,-0.1264,-0.1281,-0.1262,-0.1241,-0.1157,-0.1205,-0.1096,-0.1081,-0.1208,-0.121,-0.1191,-0.1192,-0.1189,-0.1189,-0.1189,-0.119,0,-0.0838,-0.0877,-0.0904,-0.0968,-0.0987,-0.1009,-0.1083,-0.1108,-0.1171,-0.12,-0.1215,-0.1256,-0.1221,-0.1213,-0.1176,-0.1136,-0.1078,-0.1032,-0.1165,-0.1161,-0.0992,-0.0994,-0.0916,-0.0912,-0.0908,-0.0905,-0.0903,0,-0.0813,-0.0821,-0.0884,-0.0899,-0.0927,-0.0974,-0.1004,-0.1082,-0.1109,-0.1177,-0.1176,-0.1173,-0.118,-0.1049,-0.1053,-0.0987,-0.0967,-0.0949,-0.0968,-0.0964,-0.0959,-0.0967,-0.0973,-0.0897,-0.0897,-0.0896,-0.0895,0,-0.0766,-0.0794,-0.0814,-0.0843,-0.0873,-0.0906,-0.0955,-0.0968,-0.1052,-0.1118,-0.1096,-0.1067,-0.1018,-0.0976,-0.0917,-0.0877,-0.0973,-0.0914,-0.0922,-0.0939,-0.0941,-0.0941,-0.0952,-0.0883,-0.0885,-0.0886,-0.0887,0,-0.0733,-0.0731,-0.076,-0.0774,-0.0811,-0.0822,-0.0861,-0.0886,-0.0921,-0.1004,-0.0986,-0.098,-0.1007,-0.0916,-0.0866,-0.0807,-0.08,-0.079,-0.0804,-0.0817,-0.0789,-0.0777,-0.0638,0,0,0,0,0,-0.0697,-0.068,-0.069,-0.0702,-0.0737,-0.0755,-0.082,-0.0867,-0.0947,-0.0901,-0.0945,-0.0892,-0.0821,-0.0819,-0.0731,-0.0807,-0.0798,-0.0703,-0.0794,-0.0818,-0.0831,-0.0804,0,0,0,0,0,0,-0.0668,-0.0673,-0.0664,-0.064,-0.0635,-0.0665,-0.0701,-0.0757,-0.0743,-0.082,-0.0776,-0.0832,-0.0762,-0.084,-0.0708,-0.0704,-0.0742,-0.0704,-0.0701,-0.081,-0.0822,-0.0833,-0.0809,0,0,0,0,0]},{"header":{"parameterUnit":"m.s-1","parameterCategory":2,"la1":30.2991,"la2":30.254,"lo1":-89.0895,"lo2":-89.0444,"dy":0.0017,"dx":0.0017,"nx":28,"ny":28,"refTime":"2025-05-24T21:00:00:Z","depth":"4","parameterNumber":3,"parameterNumberName":"V-component_of_CURRENTS"},"data":[0,0,0,0,0,0,0,0,0,0,0,0,0,0,0,0,0,0,0,0,0,0,0,0,0,0,0,0,0,0,0,0,0,0,0,0,0,0,0,0,0,0,0,0,0,0,0,0,0,0,0,0,0,0,0,0,0,0,-0.0315,-0.0315,0,-0.0304,-0.0304,-0.0304,-0.0275,-0.0274,-0.0274,-0.0273,-0.0207,-0.0206,-0.0205,0,0,0,0,0,0,0,0,0,0,0,0,0,-0.0305,-0.0305,-0.0315,-0.0315,-0.0315,-0.0304,-0.0304,-0.0304,-0.0275,-0.0274,-0.0274,-0.0273,-0.0208,-0.0206,-0.0205,0,0,0,0,0,0,0,0,0,0,0,0,0,-0.0303,-0.0305,-0.0315,-0.0299,-0.0298,-0.0304,-0.0304,-0.0304,-0.0275,-0.0274,-0.0273,-0.0273,-0.0208,-0.0206,-0.0205,-0.0212,0,0,-0.0199,-0.0199,0,0,0,0,0,0,0,0,-0.0303,-0.0304,-0.0302,-0.0301,-0.0299,-0.029,-0.0276,-0.0271,-0.0276,-0.0284,-0.0273,-0.0272,-0.0231,-0.0227,-0.0228,-0.0209,-0.0207,-0.0199,-0.0198,-0.0197,-0.0197,0,0,0,0,0,0,0,-0.0304,-0.0304,-0.0311,-0.0302,-0.03,-0.029,-0.0289,-0.0275,-0.0262,-0.0283,-0.0281,-0.028,-0.0229,-0.023,-0.0226,-0.0206,-0.0199,-0.0198,-0.0197,-0.0196,-0.0188,-0.0188,0,0,0,0,0,0,-0.0306,-0.0304,-0.0311,-0.0311,-0.0299,-0.0291,-0.029,-0.0294,-0.0263,-0.0258,-0.0281,-0.0279,-0.0233,-0.0228,-0.0223,-0.0214,-0.0197,-0.0196,-0.0195,-0.0187,-0.0188,-0.0189,0,0,0,0,0,0,-0.0306,-0.0307,-0.0312,-0.0307,-0.0307,-0.0293,-0.0297,-0.0294,-0.0296,-0.0262,-0.0255,-0.0286,-0.0232,-0.0226,-0.0208,-0.0212,-0.0195,-0.0193,-0.0186,-0.0187,-0.0188,-0.0207,0,0,0,0,0,0,-0.0306,-0.0308,-0.0316,-0.0307,-0.0307,-0.0321,-0.0298,-0.0295,-0.0297,-0.0294,-0.0264,-0.0257,-0.0231,-0.0211,-0.0206,-0.0209,-0.0192,-0.0185,-0.0186,-0.0188,-0.0205,-0.0208,-0.0211,0,0,0,0,0,-0.0306,-0.0322,-0.0317,-0.0317,-0.0318,-0.0322,-0.0322,-0.0308,-0.0298,-0.0305,-0.0278,-0.0258,-0.0218,-0.021,-0.0204,-0.0207,-0.0184,-0.0186,-0.0188,-0.0204,-0.0208,-0.0211,0,0,0,0,0,0,-0.0323,-0.032,-0.0314,-0.0328,-0.0327,-0.0317,-0.0324,-0.0316,-0.0303,-0.0299,-0.0263,-0.0254,-0.0241,-0.0229,-0.0221,-0.0213,-0.0201,-0.0201,-0.0215,-0.0218,-0.0221,-0.022,-0.019,0,0,0,0,0,-0.0331,-0.0341,-0.0335,-0.0348,-0.0349,-0.0339,-0.0341,-0.0334,-0.032,-0.0314,-0.0292,-0.027,-0.0247,-0.0235,-0.0219,-0.0213,-0.0179,-0.0215,-0.0218,-0.0221,-0.0218,-0.0169,-0.0166,-0.0195,-0.0195,-0.0195,0,0,-0.034,-0.0341,-0.0346,-0.0352,-0.035,-0.0356,-0.0338,-0.0347,-0.0346,-0.0308,-0.0303,-0.028,-0.025,-0.0238,-0.0232,-0.0225,-0.0196,-0.0223,-0.0226,-0.0221,-0.0171,-0.0167,-0.0165,-0.0196,-0.0196,-0.0196,0,0,-0.0364,-0.0366,-0.0381,-0.0383,-0.0386,-0.0378,-0.0383,-0.0378,-0.037,-0.0365,-0.0333,-0.0312,-0.0292,-0.0262,-0.0244,-0.0259,-0.0215,-0.0263,-0.0272,-0.0224,-0.0221,-0.0217,-0.0167,-0.0159,-0.0263,-0.0263,-0.0263,0,-0.0375,-0.0391,-0.0386,-0.04,-0.0403,-0.0389,-0.0402,-0.0394,-0.0383,-0.0369,-0.0368,-0.032,-0.03,-0.0261,-0.0268,-0.0264,-0.0228,-0.0255,-0.0226,-0.0221,-0.0217,-0.0166,-0.0157,-0.0264,-0.0264,-0.0264,-0.0264,0,-0.0405,-0.0418,-0.0429,-0.0436,-0.0439,-0.0452,-0.0438,-0.0435,-0.0424,-0.0407,-0.0378,-0.0348,-0.0313,-0.0311,-0.0293,-0.0258,-0.0238,-0.0233,-0.021,-0.0215,-0.0162,-0.0152,-0.0266,-0.0265,-0.0265,-0.0265,0,0,-0.0428,-0.0446,-0.045,-0.0457,-0.0461,-0.0465,-0.046,-0.0445,-0.0429,-0.0416,-0.0387,-0.0359,-0.0335,-0.0315,-0.0288,-0.0254,-0.0201,-0.0237,-0.0234,-0.0176,-0.0086,-0.0102,-0.0092,-0.0184,-0.0183,-0.0182,-0.0058,0,-0.0452,-0.0484,-0.0484,-0.0505,-0.0516,-0.05,-0.0493,-0.0474,-0.0451,-0.042,-0.0376,-0.0345,-0.0337,-0.0318,-0.0282,-0.0217,-0.0176,-0.0234,-0.0099,-0.0095,-0.0099,-0.0081,-0.0177,-0.005,-0.0048,-0.0046,-0.0045,0,-0.0477,-0.0495,-0.0525,-0.053,-0.0533,-0.0541,-0.0518,-0.051,-0.0456,-0.0434,-0.0388,-0.035,-0.0289,-0.0291,-0.0173,-0.0208,-0.0153,-0.0108,-0.0101,-0.0102,-0.0092,-0.0046,-0.0026,-0.0027,-0.0029,-0.003,-0.0031,0,-0.049,-0.0518,-0.0543,-0.055,-0.0555,-0.0557,-0.0552,-0.0515,-0.0497,-0.0437,-0.041,-0.0332,-0.0286,-0.0208,-0.0123,-0.0139,0.0008,0.0001,0.0044,0.0044,0.0031,0.0026,0.0082,0.0082,0.0082,0.0082,0.0081,0,-0.0506,-0.0526,-0.0555,-0.0568,-0.0586,-0.0579,-0.0576,-0.0554,-0.0511,-0.0475,-0.0419,-0.0368,-0.0265,-0.0173,-0.0103,0.0007,0.0032,0.0052,0.0077,0.0019,0.0011,0.0039,0.0032,0.0086,0.0085,0.0084,0.0084,0,-0.0509,-0.0531,-0.0563,-0.0587,-0.0595,-0.0607,-0.0604,-0.0591,-0.0549,-0.0497,-0.0476,-0.0375,-0.0253,-0.0149,-0.0006,0.0035,0.0137,0.0167,0.011,0.0127,0.0139,0.013,0.0236,0.0236,0.0237,0.0237,0.0237,0,-0.0513,-0.0532,-0.0582,-0.0604,-0.062,-0.0636,-0.0639,-0.0613,-0.059,-0.0496,-0.0464,-0.0344,-0.0268,-0.0063,0.0028,0.0177,0.0179,0.0231,0.0168,0.0143,0.0156,0.0146,0.0136,0.0238,0.0238,0.0238,0.0238,0,-0.0519,-0.0545,-0.0572,-0.0619,-0.0645,-0.0658,-0.0658,-0.064,-0.0584,-0.0552,-0.0431,-0.0325,-0.0186,-0.0052,0.0063,0.016,0.0197,0.0236,0.0235,0.0176,0.0147,0.0157,0.0147,0.024,0.024,0.024,0.0239,0,-0.0526,-0.055,-0.0592,-0.0626,-0.066,-0.0663,-0.0662,-0.0618,-0.0586,-0.0481,-0.0439,-0.0292,-0.0204,-0.0059,0.0048,0.0141,0.0149,0.0157,0.0161,0.016,0.0082,0.003,0.0119,0,0,0,0,0,-0.053,-0.0555,-0.0591,-0.0628,-0.0658,-0.0673,-0.0663,-0.065,-0.0598,-0.0513,-0.0471,-0.034,-0.0164,-0.0087,0.0006,0.0032,0.0148,0.014,0.0155,0.0248,0.0247,0.0164,0,0,0,0,0,0,-0.0535,-0.0574,-0.0589,-0.0618,-0.064,-0.0662,-0.0656,-0.0622,-0.0566,-0.0503,-0.0406,-0.0342,-0.0173,-0.0216,0.0001,0.003,0.0045,0.0225,0.0227,0.0249,0.0248,0.0246,0.016,0,0,0,0,0]}]]